CZ-3C DEB, 40206

Orbit data source: Space-Track

CZ-3C DEB, 40206 is space debris in HEO originally from a launch on Fri, 24 Feb 2012 UTC launched from the Xichang Space Center, China (XSC). Debris objects in space refer to the collection of defunct objects orbiting the Earth. Examples of debris include non-operational satellites, rocket bodies, and fragments generated from explosions, collisions, or faulty payload assembly.

Loading next visibility...
Identifier
40206, 2012-008R
Orbit
HEO
Country
Flag of CNCN / PRC
Related business
Manufacturer
CALT
Mission
Spacecraft
Bus & Motor
Unknown
Mass
Unknown
Launch date (UTC)
2012-02-24 (14 years ago)
Launch vehicle
Unknown
Launch site
Xichang Space Center, China (XSC)
Object type
Payload
Rocket body
Debris
Shape & HBR
Unknown shape, 0.1 m
Radar Cross Section
Medium (>0.1 m² and <1 m²)

Expand to show TLE details & history
Last TLE update: 4 months ago

TLE from 4 months ago
0 CZ-3C DEB
1 40206U 12008R   26079.78138975 -.00000259  00000-0 -21289-2 0  9997
2 40206  18.2935  33.8455 7231239 265.5993  16.8176  2.19223329 91918
Epoch: 2026-03-20T18:45Z
TLE epoch observation values (Epoch: 2026-03-20T18:45:12.074Z)
Latitude
0.00011°
Longitude
-65.8098°
Altitude
6,280.231 km
Speed
6.859 km/s
True Right ascension
02h 15m 12s
True Declination
0° 00' 00"
Sunlit
Object was in daylight at epoch
Visualization orbit readout
Latitude
Unknown
Longitude
Unknown
Altitude
Unknown
Speed
Unknown
Apparent Right ascension
Unknown
Apparent Declination
Unknown
Sunlit
N/A
Visualization observer readout
Local Sidereal Time
03:52:09
Azimuth
Unknown
Elevation
Unknown
Doppler factor
Unknown
Orbital elements
Apogee altitude
36,761.159 km
Perigee altitude
553.599 km
Semi-major axis
25,035.516 km
Eccentricity
0.72312
Inclination
18.2935°
RAAN
33.8455°
Arg. of periapsis
265.5993°
True anomaly
94.97288°
Mean anomaly
16.8176°
Eccentric anomaly
47.23431°
Mean motion
0.54791 °/min
Orbital period
657.04 mins
BSTAR
-0.0021289
Loading maneuver chart data...
Computing Atmospheric mass density...
Loading historical data...
Loading historical data...
Loading historical data...
Loading historical data...
Loading historical data...
Loading historical data...
Loading historical data...

Documentation

Showing up to 5 results
|